Regional Weather Roundup
Issued by NWS Newport/Morehead, NC

Current Version | Previous Version | Graphics & Text | Print | Product List | Glossary On
Versions: 1 2 3 4 5 6 7 8 9 10 11 12 13 14 15 16 17 18 19 20 21 22 23 24 25 26 27 28 29 30 31 32 33 34 35 36 37 38 39 40 41 42 43 44 45 46 47 48 49 50
000 ASUS42 KMHX 220414 RWRMHX WEATHER ROUNDUP FOR EASTERN NORTH CAROLINA NATIONAL WEATHER SERVICE NEWPORT/MOREHEAD CITY NC 1200 AM EDT FRI SEP 22 2017 NOTE: "FAIR" INDICATES FEW OR NO CLOUDS BELOW 12,000 FEET WITH NO SIGNIFICANT WEATHER AND/OR OBSTRUCTIONS TO VISIBILITY NCZ015>017-031-032-045>047-102-103-220500- NORTH COAST CITY SKY/WX TMP DP RH WIND PRES REMARKS EDENTON CLEAR 71 68 90 CALM 30.06S ELIZABETH CITY CLEAR 71 69 93 SE3 30.06S KITTY HAWK CLEAR 70 64 81 CALM 30.04F MANTEO CLEAR 69 65 89 CALM 30.06S $$ NCZ045>047-081-094-103-104-220500- CENTRAL COAST CITY SKY/WX TMP DP RH WIND PRES REMARKS FRISCO CLEAR 69 67 93 NE3 30.05S $$ NCZ095-097-098-100-101-220500- SOUTHERN COAST CITY SKY/WX TMP DP RH WIND PRES REMARKS BEAUFORT PTCLDY 70 70 100 CALM 30.04F CEDAR ISLAND NOT AVBL JACKSONVILLE CLEAR 69 69 100 CALM 30.03F PINEY ISLAND N/A N/A N/A N/A E6 30.04S WILMINGTON CLOUDY 69 68 96 CALM 30.04S $$ NCZ011>013-027>030-043-044-078>080-089-090>093-098-220500- COASTAL PLAIN CITY SKY/WX TMP DP RH WIND PRES REMARKS AHOSKIE CLEAR 67 67 100 CALM 30.06S CLINTON CLEAR 67 67 100 CALM 30.06R ELIZABETHTOWN NOT AVBL GOLDSBORO CLEAR 68 68 100 CALM 30.03S GREENVILLE N/A 68 68 100 CALM 30.06S FOG HAVELOCK CLEAR 69 68 96 CALM 30.06 KENANSVILLE CLEAR 66 64 94 CALM 30.05F FOG KINSTON CLEAR 68 67 98 CALM 30.05S FOG NEW BERN PTCLDY 68 68 100 CALM 30.06S FOG RICHLANDS PTCLDY 67 67 100 CALM 30.05S FOG ROCKY MOUNT PTCLDY 68 68 100 CALM 30.05F FOG WASHINGTON CLEAR 71 69 96 CALM 30.05S WHITEVILLE CLEAR 68 67 97 CALM 30.04S FOG $$ AMZ130-135-150-152-154-156-158-170-250-252-270-ANZ085-086-088-633-658-670-220500- MARINE OBSERVATIONS STATION/POSITION TIME TEMP WIND PRES WAVE SWELL AIR SEA DIR/SP/G HT/PER HT/PER (UTC) (F) (DEG/KT/KT) (MB) (FT/S) (FT/S) CHESAPEAKE LIGHT NOT AVBL 64 E VA BEACH 0350 69 69 280/ 4/ 4 1017.7 7/10 7/10 DUCK 0342 73 75 80/ 8/ 9 1017.3 2 E DUCK 0400 76 N/A 4/10 2/11 OREGON INLET 0342 72 78 40/ 5/ 7 1017.4 13E OREGON INLT 0348 74 N/A 5/12 5/12 HATTERAS CG 0342 74 78 80/ 3/ 4 1017.5 DIAMOND BUOY 0350 75 75 50/ 4/ 6 1017.3 5/10 5/10 CAPE LOOKOUT 0400 77 70/ 9/ 11 1017.2 BEAUFORT LAB 0342 74 76 30/ 3/ 4 1016.8 30 SE NEW RVR IN 0308 78 50/ 6/ 8 1016.9 30 SE NEW RVR IN NOT AVBL 27 SE WRIGHTSVLE 0308 79 80 80/ 6/ 10 1016.8 5 SE WRIGHTSVLE 0308 76 78 30/ 6/ 10 1016.5 225 S CAPE HAT 0350 78 81 160/ 2/ 4 1016.9 5/11 5/11 41 SE CHARLESTON 0350 80 82 100/ 4/ 6 1016.1 2/11 2/11 $$

USA.gov is the U.S. government's official web portal to all federal, state and local government web resources and services.